Wind_Speed
8 6 4 6 4 3 12 8 10 11 9 3 14 5 3 5 4 4 14 15 24 25 24 22 24 22 20 18 17 16 16 15 13 13 11 10 8 8 7 6 6 7 6 6 7 8 7 6 4
6 4 4 4 1 11 10 10 11 7 7 11 8 5 3 6 7 12 18 20 25 24 24 21 23 22 19 18 16 16 15 15 13 12 10 7 5 4 3 4 3 3 4 4 4 5 5 4 3
6 2 4 4 12 14 11 11 11 8 7 12 4 4 3 4 4 19 17 27 23 23 23 22 23 21 18 17 15 15 14 13 12 10 8 7 4 2 1 0 1 0 2 3 3 3 3 2 2
4 4 4 4 17 11 14 11 10 10 8 5 2 7 7 5 11 12 26 25 23 22 21 22 22 19 18 17 16 14 13 12 11 9 7 6 5 4 3 1 1 1 1 2 3 2 2 3 2
4 3 2 10 15 12 10 10 8 5 6 7 3 6 6 7 12 23 26 24 22 21 20 20 21 18 17 16 16 15 13 11 10 8 7 6 4 3 3 3 3 3 4 4 5 5 5 4 2
3 4 5 11 13 10 9 9 7 5 6 7 7 10 8 12 20 26 24 22 20 20 20 21 21 18 16 15 15 13 11 10 9 8 7 6 5 5 5 5 5 6 6 6 6 8 7 7 5
4 5 6 9 9 7 7 6 3 6 7 7 7 8 8 14 21 23 22 20 19 19 19 19 18 17 16 15 14 13 12 11 10 9 8 7 7 7 7 7 7 7 7 8 8 8 8 7 6
4 4 4 8 5 9 6 5 2 3 7 10 1 5 10 19 23 22 21 19 18 17 17 17 17 17 16 15 15 13 12 12 11 10 9 8 9 9 9 9 10 8 7 8 7 7 7 7 8
2 5 6 6 8 6 8 5 3 4 10 3 3 5 18 27 25 23 21 19 18 17 16 16 17 16 15 14 15 14 13 12 11 11 11 10 8 9 6 8 12 9 8 7 7 6 7 7 8
5 3 5 4 3 4 4 4 7 5 8 5 7 10 24 27 25 24 22 21 20 19 18 16 16 16 15 13 12 12 13 12 12 11 9 10 9 7 8 7 10 10 7 7 6 8 7 8 6
1 4 2 3 4 1 5 6 4 1 6 4 9 17 21 24 22 22 21 20 20 18 17 17 16 15 14 13 12 11 12 11 11 12 10 9 9 7 8 6 5 4 4 5 5 5 6 5 6
6 3 2 3 4 2 5 9 4 1 8 4 14 18 19 19 18 20 20 18 18 18 17 16 15 15 14 12 13 11 11 11 11 10 10 11 10 9 8 7 5 5 5 4 5 5 5 6 4
5 2 1 1 1 4 8 4 8 8 9 12 15 16 16 16 18 18 17 16 16 16 16 15 15 15 15 16 13 13 13 13 12 11 11 12 11 10 9 8 8 7 6 6 6 7 7 5 6
1 3 0 3 6 7 7 7 4 8 11 13 14 14 14 15 18 17 15 15 16 15 16 16 16 17 17 17 16 14 14 13 13 13 12 13 13 12 11 10 10 9 9 8 7 7 8 6 8
2 4 8 5 3 4 7 7 7 12 11 12 12 11 12 14 18 17 17 16 16 16 15 17 18 17 18 17 16 16 15 14 14 14 14 15 15 15 14 12 12 12 11 10 10 10 10 10 10
6 7 6 6 5 4 8 9 9 12 12 11 12 12 12 14 17 17 17 17 16 15 16 15 16 17 18 17 15 15 15 15 14 13 14 15 16 15 14 15 15 13 14 13 13 13 11 13 13
7 3 3 6 3 3 6 7 10 13 11 10 11 12 12 13 15 17 18 18 17 17 17 17 17 17 16 16 16 15 15 16 15 15 15 15 15 16 16 16 15 14 16 17 16 16 13 14 14
7 6 4 2 5 5 5 6 10 13 11 11 10 11 12 13 15 19 19 19 18 17 16 16 16 17 16 15 16 17 17 18 18 18 18 18 18 18 19 19 18 17 18 19 18 18 17 15 13
3 4 3 2 3 4 1 2 10 11 11 10 11 12 12 12 14 17 19 19 18 17 17 18 19 19 18 19 19 19 21 19 19 20 21 20 21 20 20 20 20 20 21 22 20 20 19 18 17
3 3 4 4 2 6 4 6 7 12 12 11 10 11 13 14 13 16 19 19 20 21 21 21 22 20 22 21 21 20 18 19 20 20 22 24 24 24 24 24 23 22 22 22 21 21 21 21 18
7 4 2 0 5 3 4 8 9 11 9 8 10 9 11 13 14 15 17 19 20 21 22 23 24 24 23 22 19 19 18 20 19 22 24 26 26 27 28 29 29 26 25 24 22 21 20 22 21
7 0 4 7 9 6 8 8 9 14 12 11 10 11 12 13 14 13 13 18 21 21 19 21 22 21 21 22 23 23 22 21 23 22 21 22 24 26 27 29 31 31 29 27 26 26 26 23 22
7 2 8 8 5 8 6 4 14 8 9 12 13 12 13 12 13 13 13 15 16 16 19 19 20 21 22 22 24 24 26 25 23 22 21 21 22 23 25 26 26 29 27 28 29 26 25 25 26
3 7 6 6 5 3 5 8 10 13 9 13 12 12 11 9 9 8 10 10 13 13 15 15 17 18 18 20 22 24 25 24 22 21 22 22 22 23 26 29 30 29 29 30 30 25 22 26 24
10 9 7 7 7 8 4 6 12 10 4 3 3 3 3 7 8 8 7 7 7 9 10 12 13 13 13 16 18 20 21 22 25 26 26 26 26 26 25 25 27 29 33 33 24 21 20 24 31
15 14 5 4 3 10 5 4 8 7 6 5 5 4 4 6 8 8 8 7 7 5 2 2 4 6 7 9 12 15 17 20 22 23 24 25 26 26 25 24 26 28 27 25 24 19 25 45 38
10 8 6 6 1 6 6 6 8 9 9 10 11 11 12 13 14 15 16 18 17 17 15 13 12 10 8 6 5 7 11 14 17 18 19 21 21 22 23 23 25 25 26 25 27 31 36 37 39
8 2 6 6 2 3 6 2 8 11 10 11 12 14 14 15 16 16 16 19 19 19 19 19 18 15 13 11 10 9 9 9 9 10 12 14 16 18 19 21 22 24 25 25 25 27 32 39 42
6 9 4 3 5 3 5 4 9 8 9 12 13 13 13 14 14 14 15 17 18 18 17 18 17 14 13 11 11 11 11 11 10 10 13 15 17 18 21 23 25 26 27 29 30 31 33 36 34
8 9 9 7 9 4 7 5 5 7 11 13 14 13 13 13 13 13 15 16 15 15 15 14 12 12 11 10 10 12 12 12 13 15 15 16 18 18 19 21 22 23 23 22 23 27 28 32 33
Wind_Direction
146 170 210 242 216 97 81 90 110 119 137 67 145 175 167 36 4 33 142 144 149 151 156 153 156 152 155 156 150 147 148 146 150 149 149 143 134 122 108 96 80 68 67 69 81 90 97 102 105
163 179 239 268 87 80 76 108 109 116 113 136 134 128 136 81 70 127 143 149 153 152 155 158 157 155 157 155 153 150 149 151 154 155 158 155 150 137 125 109 98 89 81 68 67 78 87 96 109
173 229 262 283 51 66 82 92 106 112 136 155 130 30 32 55 92 146 141 149 153 154 157 161 157 159 156 156 160 157 156 155 156 162 170 169 166 150 12 92 139 120 79 72 62 51 29 46 63
209 198 240 64 84 62 87 100 119 127 123 160 120 96 106 28 143 146 145 149 153 156 157 163 159 160 160 160 162 164 166 164 165 170 176 180 176 167 151 293 297 282 339 332 339 343 352 298 332
253 242 184 82 83 95 83 102 122 102 102 131 201 102 84 100 130 140 148 152 154 155 155 162 165 168 166 163 164 166 171 175 181 186 187 186 205 216 215 228 246 280 294 297 305 311 320 313 338
258 269 67 75 85 96 102 124 119 90 115 118 117 114 85 123 140 147 152 155 155 156 158 166 173 173 177 172 171 174 179 189 198 203 213 232 243 248 238 240 248 251 267 284 293 303 303 310 311
309 303 53 66 95 89 114 123 108 101 122 101 127 94 111 145 146 149 152 157 157 158 160 164 170 177 180 182 183 188 195 202 208 213 228 244 257 261 259 253 248 252 267 274 275 285 289 290 292
288 266 82 53 62 75 120 163 79 132 73 115 107 121 159 147 153 152 155 159 162 162 164 168 172 179 186 195 196 201 208 216 223 231 240 248 261 267 272 274 271 257 262 272 275 277 277 275 282
273 244 76 58 24 61 139 155 132 87 141 92 69 55 128 150 154 156 159 163 167 172 172 176 178 185 191 199 209 211 219 226 236 246 246 256 258 249 256 260 270 280 281 269 268 264 266 269 279
253 299 55 44 31 31 177 233 134 162 156 140 106 109 137 152 159 163 168 170 175 177 181 186 187 189 196 203 207 214 227 236 238 241 247 252 260 273 267 268 284 275 272 268 259 251 253 260 255
271 3 83 67 359 288 162 178 129 292 193 134 151 143 151 158 166 170 177 176 179 181 184 191 194 198 199 204 208 218 222 230 235 237 242 248 262 262 257 260 262 264 260 252 252 274 270 257 243
244 90 59 22 354 297 161 122 116 26 14 70 129 150 157 168 171 175 180 179 181 185 192 194 198 200 208 207 214 221 226 228 235 237 233 241 244 245 249 250 247 244 242 244 244 263 256 267 274
246 97 302 32 331 98 136 121 97 83 84 99 127 149 161 171 173 176 178 179 186 189 196 199 199 205 211 214 219 224 228 230 235 236 234 231 238 240 239 236 239 240 239 245 251 256 255 263 266
31 252 274 164 104 131 129 131 162 111 120 116 139 154 163 169 172 168 178 182 187 191 197 202 206 208 211 216 221 226 231 234 236 239 238 234 232 237 237 237 240 240 243 248 257 262 275 258 268
283 236 154 143 159 117 142 137 81 140 137 131 146 158 161 167 172 179 185 191 193 196 203 205 210 213 218 220 226 231 236 236 238 239 238 235 233 235 237 245 246 243 239 250 262 263 261 267 268
236 230 207 119 191 151 255 95 129 155 149 143 146 158 176 180 185 191 193 202 203 214 209 215 215 217 220 224 227 233 238 241 243 242 240 236 233 233 236 242 246 246 246 255 259 259 262 263 267
211 144 225 142 188 166 268 104 148 163 164 153 154 163 176 185 200 199 203 206 210 213 222 223 225 225 224 227 230 234 237 239 242 242 241 238 237 235 238 243 248 249 250 251 254 261 259 272 267
176 172 162 150 143 209 170 110 146 170 184 168 166 169 178 188 194 199 206 209 212 220 224 232 232 231 227 226 228 231 235 239 240 241 242 240 240 240 240 247 251 251 253 252 249 249 258 270 273
131 156 172 163 181 264 105 156 146 168 193 179 180 184 194 205 196 196 202 210 220 227 227 228 229 230 222 222 224 227 231 236 238 240 242 242 243 243 244 249 254 252 252 254 253 252 249 254 255
211 213 186 127 327 230 117 121 139 166 191 187 195 193 199 202 210 208 211 216 219 226 229 230 230 228 224 226 231 233 238 243 244 245 245 242 240 240 241 245 246 247 250 249 251 250 256 256 252
207 253 181 63 133 170 197 142 150 172 188 200 211 215 213 218 217 209 212 218 221 226 228 229 230 227 226 229 233 233 235 243 243 240 241 241 237 236 236 238 239 241 241 246 242 245 247 257 256
169 176 223 181 217 121 236 121 174 161 182 203 216 215 221 224 223 229 213 212 221 225 227 229 230 228 228 225 228 228 232 238 242 245 247 245 242 241 239 237 237 236 237 241 240 238 233 230 245
43 204 186 186 189 198 168 250 137 162 187 178 181 192 206 214 222 220 216 224 224 222 223 221 220 220 221 221 224 229 234 244 250 252 251 248 247 245 242 240 241 241 242 246 243 242 234 236 238
148 139 164 187 229 191 92 278 154 173 189 173 170 175 182 198 230 234 232 231 225 226 227 225 220 226 226 223 227 231 240 244 253 254 253 255 254 253 248 242 237 234 233 236 239 241 250 257 255
203 219 173 195 198 82 107 249 102 119 96 302 302 325 5 328 260 222 215 240 230 235 226 232 230 240 239 237 239 243 251 257 260 262 265 267 266 263 258 252 246 242 239 240 231 225 239 263 253
201 249 302 201 208 116 155 198 107 83 67 85 115 95 85 57 57 57 66 67 74 68 87 215 256 262 272 265 265 265 263 266 271 273 274 275 276 273 273 265 256 255 251 240 218 206 224 241 257
160 224 339 295 182 261 127 119 142 116 85 102 102 96 88 83 81 83 81 81 80 78 72 74 74 61 42 21 338 307 291 280 280 283 281 278 278 279 278 274 267 264 258 248 234 249 232 233 244
272 119 204 223 198 266 133 228 102 156 112 114 106 102 97 96 93 88 83 79 76 76 78 76 72 65 56 44 31 10 346 330 317 309 304 297 291 288 285 283 277 269 257 243 242 248 246 244 240
174 217 241 325 293 308 220 143 90 126 136 127 116 111 107 101 95 90 87 86 84 81 79 74 68 60 48 34 18 4 352 344 339 333 320 308 299 293 289 287 283 277 272 266 259 250 251 250 241
253 255 214 228 173 241 311 84 85 124 137 131 119 116 110 106 102 96 95 93 88 81 73 67 58 46 33 18 6 359 345 330 316 313 313 310 305 306 303 299 295 290 284 276 268 263 255 249 245
Height
765 766 765 760 764 747 765 776 758 770 770 759 765 773 775 771 781 796 792 794 799 803 809 814 816 820 824 826 828 829 831 833 835 836 837 838 839 840 841 842 843 843 844 845 846 846 846 847 847
766 766 764 751 755 768 777 756 767 763 759 757 764 767 771 780 778 790 793 797 802 806 811 815 819 821 826 827 829 830 832 834 836 838 839 840 841 841 842 843 844 845 845 846 846 847 847 848 849
766 766 758 747 750 768 775 757 759 761 758 761 767 765 771 783 785 789 792 797 803 807 812 816 820 824 827 828 831 832 834 835 838 839 840 842 842 842 843 844 846 846 847 848 848 848 848 849 849
765 761 751 753 766 759 757 754 754 761 759 758 760 774 779 785 786 788 795 799 805 809 813 817 821 824 827 829 831 833 835 836 839 840 842 843 844 845 846 845 846 847 847 848 849 850 850 848 849
763 754 754 759 763 755 748 748 751 758 759 761 761 778 782 786 788 792 797 801 805 810 814 819 822 825 828 830 832 834 835 837 839 841 843 844 844 845 846 847 848 848 848 848 848 848 849 850 849
757 753 757 768 766 755 749 747 751 754 756 763 766 771 783 787 789 793 798 802 806 809 814 819 823 826 829 831 833 835 837 839 841 842 843 843 844 845 846 847 848 848 849 848 849 848 847 847 848
765 755 765 758 766 762 756 746 752 754 758 761 758 771 784 786 791 794 799 804 807 811 815 820 824 828 830 832 834 835 837 839 841 842 843 843 843 844 845 846 847 847 847 848 848 847 847 847 847
758 759 760 756 765 769 751 751 749 752 762 756 756 769 785 783 791 796 801 805 808 812 815 819 823 826 829 832 833 835 837 838 840 841 843 843 843 843 843 843 843 844 846 846 847 847 845 846 846
754 759 769 766 763 760 748 756 751 750 758 758 760 759 765 782 790 795 801 805 809 812 815 818 821 825 828 830 832 834 836 838 839 841 841 843 842 839 841 841 842 842 843 844 845 845 844 845 844
761 756 762 753 752 753 748 748 752 757 760 764 767 768 775 783 789 792 797 801 806 809 812 815 818 822 825 828 831 833 835 836 837 838 839 839 838 839 840 840 840 841 841 841 841 842 842 842 843
754 761 754 752 746 746 745 748 747 754 762 754 765 772 778 783 787 791 794 798 802 806 810 813 816 820 822 826 828 830 831 832 834 837 838 838 839 839 839 839 839 840 839 840 839 840 840 840 842
759 752 751 751 743 742 746 744 753 755 757 750 758 770 777 781 784 787 791 795 799 804 808 812 815 819 822 824 827 827 829 830 832 833 836 837 838 838 838 838 838 839 839 838 839 838 838 839 838
758 753 750 746 743 739 741 749 755 761 757 758 765 772 776 780 784 787 791 795 798 803 807 810 815 818 821 823 824 826 826 828 829 831 832 834 834 835 836 836 836 836 836 836 837 836 836 838 837
755 752 749 746 744 744 751 754 752 763 760 765 770 773 775 778 783 787 792 794 798 802 806 809 812 815 818 820 822 824 825 826 827 828 829 830 831 832 832 833 833 832 832 833 833 834 834 836 834
754 759 749 747 746 751 743 761 763 760 760 767 771 774 776 779 783 787 791 794 797 800 803 806 810 813 816 818 821 823 823 824 824 825 826 827 828 828 829 829 829 828 828 829 830 831 830 831 830
756 755 768 752 746 749 750 775 763 759 760 767 770 774 777 779 782 785 789 793 795 798 801 805 808 811 814 817 820 821 821 822 822 823 824 824 825 826 826 825 825 825 826 826 826 825 826 826 824
758 768 768 762 745 749 750 766 760 758 761 766 769 772 775 777 781 783 786 789 791 795 799 803 807 809 812 815 817 818 819 819 819 820 820 821 822 823 823 822 821 822 822 821 822 822 822 822 821
770 767 762 763 753 749 754 755 756 757 759 763 765 768 771 773 775 779 782 785 788 792 797 802 804 807 809 811 813 814 814 815 816 816 816 817 817 818 819 819 819 819 818 818 817 817 817 818 818
751 758 764 752 745 751 752 754 752 754 756 758 759 764 767 768 768 772 776 781 784 787 792 796 799 802 805 806 807 808 808 809 810 810 811 812 813 814 815 815 815 815 815 815 815 816 815 813 813
756 760 757 752 744 748 751 755 747 749 752 750 753 756 759 762 763 766 770 775 779 781 785 789 792 795 797 799 800 802 803 804 804 805 805 805 806 807 808 808 808 808 808 809 812 812 811 809 809
749 756 757 754 751 746 752 760 756 748 745 744 745 746 748 752 754 757 764 768 771 774 777 781 784 787 791 794 797 798 798 798 798 797 796 796 797 798 798 799 800 801 802 801 803 805 808 806 803
754 744 748 752 755 763 746 784 761 748 750 748 746 745 744 744 747 750 755 760 763 766 770 774 778 782 784 787 789 790 790 788 787 789 789 790 791 791 791 791 791 792 794 794 794 795 794 797 796
754 738 744 743 750 749 755 754 757 746 757 745 737 737 737 737 738 741 747 752 756 759 762 766 771 773 774 778 781 783 783 782 783 784 784 785 785 785 785 784 785 786 789 789 789 791 792 792 791
740 745 745 740 741 765 758 755 756 753 746 739 731 729 730 733 735 738 742 745 750 754 758 762 765 768 771 773 775 777 777 778 779 778 778 778 778 778 777 776 776 775 775 777 780 787 792 796 791
747 749 768 775 771 770 752 759 749 740 738 736 734 731 728 733 731 732 740 744 748 752 756 759 763 766 768 770 772 774 775 776 775 774 773 772 770 770 770 771 771 769 767 769 773 775 779 782 787
748 736 764 792 773 765 755 767 753 739 735 734 736 738 738 735 734 737 741 747 752 755 757 760 762 766 767 769 771 771 771 771 770 769 768 767 765 764 764 764 764 764 764 764 761 756 753 756 774
742 759 726 746 748 761 746 746 739 736 743 740 743 743 745 745 746 750 753 756 759 760 763 764 765 766 767 768 768 769 769 768 766 765 764 763 762 760 759 759 758 758 757 758 756 754 750 753 760
735 723 753 743 784 787 758 757 748 749 751 749 750 751 751 750 753 755 757 761 763 765 767 767 767 769 770 769 769 768 767 765 763 762 761 760 758 756 755 754 753 751 751 750 752 751 749 749 749
746 745 735 731 743 764 771 752 729 742 745 752 753 753 755 755 757 759 761 766 768 770 771 771 771 772 771 771 770 768 767 765 763 761 760 758 756 754 751 748 746 745 744 743 742 741 740 737 736
715 720 723 747 764 747 751 756 735 741 740 745 753 755 754 756 759 762 765 768 772 772 773 774 774 773 773 773 771 769 767 765 763 760 758 755 752 750 747 744 741 739 737 735 734 731 729 727 727